Location: Recife
(8.0585°S, 34.8848°W)
Time: 11:50:56
(UTC-03:00)

Courier 1B - Pass Details

Date: 20 April 2026
Orbit: 962 x 1209 km, 28.3° (Epoch: 15 May)

Event Time Altitude Azimuth Distance (km) Brightness Sun altitude
Exits shadow 02:54:25 59° 80° (E) 1,275 8.2 -36.8°
Drops below altitude 10° 03:00:41 10° 112° (ESE) 3,058 10.7 -35.2°
Sets 03:03:36 0° 115° (ESE) 4,051 11.5 -34.5°
